CW1020 Weather Reports


time (UTC)temp
F
wind
direction
speed
knots
gust
knots
rain 1hr
in
rain 24hr
in
rain mn
in
humidity
%
barometer
mb
20260831232003 82 240 7.8 11.3 0.00 0.00 0.00 20 1015.6
20260831231004 81 234 8.7 12.2 0.00 0.00 0.00 20 1015.6
20260831230503 82 237 8.7 14.8 0.00 0.00 0.00 20 1015.6
20260831230004 82 233 7.8 15.6 0.00 0.00 0.00 20 1015.7
20260831225503 82 213 7.8 10.4 0.00 0.00 0.00 20 1015.7
20260831225003 81 221 8.7 12.2 0.00 0.00 0.00 20 1015.7
20260831224003 82 229 9.6 14.8 0.00 0.00 0.00 20 1015.8
20260831223503 82 233 7.8 13.9 0.00 0.00 0.00 20 1015.8
20260831222503 82 235 8.7 15.6 0.00 0.00 0.00 20 1015.9
20260831222003 82 241 8.7 13.9 0.00 0.00 0.00 20 1016.0
20260831221004 81 236 9.6 17.4 0.00 0.00 0.00 20 1016.0
20260831220503 81 236 9.6 14.8 0.00 0.00 0.00 20 1016.2
20260831215504 81 240 9.6 15.6 0.00 0.00 0.00 19 1016.2
20260831215003 82 242 8.7 15.6 0.00 0.00 0.00 19 1016.2
20260831214504 81 241 7.8 12.2 0.00 0.00 0.00 20 1016.3
20260831214003 81 232 10.4 13.9 0.00 0.00 0.00 20 1016.3
20260831213504 80 237 11.3 14.8 0.00 0.00 0.00 19 1016.3
20260831213003 80 235 11.3 16.5 0.00 0.00 0.00 19 1016.3
20260831212502 81 237 11.3 17.4 0.00 0.00 0.00 19 1016.4
20260831212002 80 237 12.2 17.4 0.00 0.00 0.00 18 1016.5
20260831211002 81 225 11.3 16.5 0.00 0.00 0.00 18 1016.5
20260831210502 80 224 11.3 14.8 0.00 0.00 0.00 18 1016.6
20260831210002 81 236 10.4 20.0 0.00 0.00 0.00 17 1016.6
20260831205502 81 238 9.6 18.2 0.00 0.00 0.00 17 1016.6
20260831204502 81 237 9.6 15.6 0.00 0.00 0.00 17 1016.6
20260831204002 81 233 9.6 13.9 0.00 0.00 0.00 16 1016.5
20260831203502 81 239 10.4 14.8 0.00 0.00 0.00 17 1016.6
20260831203002 81 233 9.6 16.5 0.00 0.00 0.00 17 1016.5
20260831202502 81 240 9.6 16.5 0.00 0.00 0.00 17 1016.6
20260831202002 81 233 10.4 18.2 0.00 0.00 0.00 18 1016.6
20260831201503 80 237 9.6 16.5 0.00 0.00 0.00 18 1016.7
20260831201002 81 237 9.6 14.8 0.00 0.00 0.00 18 1016.7
20260831200503 80 229 9.6 13.0 0.00 0.00 0.00 19 1016.6
20260831200003 80 240 9.6 13.9 0.00 0.00 0.00 20 1016.7
20260831195002 80 235 8.7 16.5 0.00 0.00 0.00 21 1016.8
20260831194502 80 231 9.6 13.0 0.00 0.00 0.00 22 1016.8
20260831194002 80 233 9.6 14.8 0.00 0.00 0.00 22 1016.8
20260831193502 80 234 9.6 16.5 0.00 0.00 0.00 22 1016.8
20260831193003 80 235 8.7 11.3 0.00 0.00 0.00 22 1016.9
20260831192502 80 237 8.7 14.8 0.00 0.00 0.00 22 1016.9
20260831192002 80 238 7.8 14.8 0.00 0.00 0.00 23 1017.0
20260831191503 80 231 7.8 12.2 0.00 0.00 0.00 23 1017.1
20260831191002 79 236 7.8 13.0 0.00 0.00 0.00 23 1017.1
20260831190503 79 241 7.8 12.2 0.00 0.00 0.00 24 1017.0
20260831190003 79 241 8.7 12.2 0.00 0.00 0.00 24 1017.0
20260831185502 80 237 7.8 14.8 0.00 0.00 0.00 24 1017.0
20260831185002 80 235 7.0 15.6 0.00 0.00 0.00 24 1017.0
20260831184502 80 242 7.0 10.4 0.00 0.00 0.00 25 1017.1
20260831184003 79 237 7.8 12.2 0.00 0.00 0.00 25 1017.1
20260831183502 79 236 7.8 10.4 0.00 0.00 0.00 25 1017.1
20260831182502 79 237 7.0 12.2 0.00 0.00 0.00 26 1017.1
20260831182002 79 239 7.0 10.4 0.00 0.00 0.00 27 1017.2
20260831181503 79 237 7.0 13.0 0.00 0.00 0.00 27 1017.2
20260831181002 78 241 7.8 10.4 0.00 0.00 0.00 27 1017.2
20260831180503 78 233 7.0 13.9 0.00 0.00 0.00 28 1017.3
20260831180002 78 233 7.8 11.3 0.00 0.00 0.00 29 1017.3
20260831175502 78 240 7.8 11.3 0.00 0.00 0.00 29 1017.3
20260831175002 78 242 7.0 13.9 0.00 0.00 0.00 30 1017.4
20260831174502 77 238 4.3 11.3 0.00 0.00 0.00 29 1017.4
20260831174002 77 241 4.3 9.6 0.00 0.00 0.00 30 1017.4
20260831173502 77 245 4.3 9.6 0.00 0.00 0.00 31 1017.4
20260831173002 76 244 3.5 7.8 0.00 0.00 0.00 31 1017.3
20260831172502 76 255 2.6 7.8 0.00 0.00 0.00 32 1017.4
20260831172002 76 264 2.6 5.2 0.00 0.00 0.00 33 1017.4
20260831171502 75 248 2.6 7.8 0.00 0.00 0.00 33 1017.4
20260831171002 75 246 4.3 7.0 0.00 0.00 0.00 34 1017.5
20260831170002 74 243 5.2 8.7 0.00 0.00 0.00 35 1017.4
20260831165503 74 245 5.2 7.0 0.00 0.00 0.00 36 1017.3
20260831165002 74 243 4.3 8.7 0.00 0.00 0.00 36 1017.3
20260831164502 74 246 3.5 7.8 0.00 0.00 0.00 36 1017.3
20260831163502 73 253 0.9 2.6 0.00 0.00 0.00 37 1017.3
20260831163003 72 240 0.9 2.6 0.00 0.00 0.00 38 1017.4
20260831162502 71 251 0.0 2.6 0.00 0.00 0.00 39 1017.4
20260831162002 69 327 0.0 0.9 0.00 0.00 0.00 41 1017.2
20260831161503 68 0 0.0 0.0 0.00 0.00 0.00 42 1017.2
20260831161002 67 0 0.0 0.0 0.00 0.00 0.00 43 1017.2
20260831160502 66 329 0.0 0.9 0.00 0.00 0.00 45 1017.2
20260831160003 65 343 0.0 1.7 0.00 0.00 0.00 47 1017.3
20260831155002 62 0 0.0 0.0 0.00 0.00 0.00 54 1017.3
20260831154503 62 73 0.0 0.9 0.00 0.00 0.00 56 1017.4
20260831154002 60 74 0.0 2.6 0.00 0.00 0.00 58 1017.4
20260831153503 59 0 0.0 0.0 0.00 0.00 0.00 59 1017.4
20260831153003 58 0 0.0 0.0 0.00 0.00 0.00 61 1017.5
20260831152502 58 0 0.0 0.0 0.00 0.00 0.00 63 1017.4
20260831151503 56 0 0.0 0.0 0.00 0.00 0.00 65 1017.5
20260831150503 55 0 0.0 0.0 0.00 0.00 0.00 66 1017.4
20260831150003 55 0 0.0 0.0 0.00 0.00 0.00 66 1017.4
20260831145502 55 0 0.0 0.0 0.00 0.00 0.00 66 1017.4
20260831144002 54 0 0.0 0.0 0.00 0.00 0.00 65 1017.3
20260831143502 54 0 0.0 0.0 0.00 0.00 0.00 65 1017.3
20260831143003 54 0 0.0 0.0 0.00 0.00 0.00 65 1017.3
20260831142502 54 0 0.0 0.0 0.00 0.00 0.00 65 1017.2
20260831142002 54 0 0.0 0.0 0.00 0.00 0.00 64 1017.1
20260831141503 54 0 0.0 0.0 0.00 0.00 0.00 64 1017.1
20260831141003 54 0 0.0 0.0 0.00 0.00 0.00 64 1017.0
20260831140502 54 0 0.0 0.0 0.00 0.00 0.00 64 1017.0
20260831140002 54 0 0.0 0.0 0.00 0.00 0.00 64 1017.0
20260831135503 54 0 0.0 0.0 0.00 0.00 0.00 64 1016.9
20260831135002 54 0 0.0 0.0 0.00 0.00 0.00 63 1016.8
20260831134503 55 0 0.0 0.0 0.00 0.00 0.00 62 1016.7
20260831134002 55 75 0.0 0.9 0.00 0.00 0.00 60 1016.7
20260831133502 55 0 0.0 0.0 0.00 0.00 0.00 60 1016.7
20260831133002 55 0 0.0 0.0 0.00 0.00 0.00 60 1016.5
20260831132502 56 0 0.0 0.0 0.00 0.00 0.00 60 1016.5
20260831132002 56 0 0.0 0.0 0.00 0.00 0.00 60 1016.5
20260831131502 56 0 0.0 0.0 0.00 0.00 0.00 60 1016.4
20260831131002 56 0 0.0 0.0 0.00 0.00 0.00 59 1016.4
20260831125503 57 0 0.0 0.0 0.00 0.00 0.00 59 1016.6
20260831125002 57 0 0.0 0.0 0.00 0.00 0.00 59 1016.6
20260831123502 57 0 0.0 0.0 0.00 0.00 0.00 59 1016.4
20260831123002 57 0 0.0 0.0 0.00 0.00 0.00 59 1016.3
20260831122503 57 89 0.9 1.7 0.00 0.00 0.00 59 1016.4
20260831122003 57 76 0.0 1.7 0.00 0.00 0.00 59 1016.5
20260831121502 57 73 0.0 0.9 0.00 0.00 0.00 60 1016.4
20260831121002 58 74 0.0 0.9 0.00 0.00 0.00 59 1016.4
20260831120002 58 0 0.0 0.0 0.00 0.00 0.00 59 1016.3
20260831115503 58 0 0.0 0.0 0.00 0.00 0.00 58 1016.3
20260831114003 58 0 0.0 0.0 0.00 0.00 0.00 58 1016.5
20260831113502 58 0 0.0 0.0 0.00 0.00 0.00 58 1016.5
20260831113002 58 0 0.0 0.0 0.00 0.00 0.00 57 1016.5
20260831111503 59 62 0.0 0.9 0.00 0.00 0.00 57 1016.5
20260831111002 59 0 0.0 0.0 0.00 0.00 0.00 57 1016.5
20260831110503 59 0 0.0 0.0 0.00 0.00 0.00 57 1016.5
20260831105502 59 63 0.0 0.9 0.00 0.00 0.00 58 1016.5
20260831104503 58 0 0.0 0.0 0.00 0.00 0.00 58 1016.6
20260831104002 58 0 0.0 0.0 0.00 0.00 0.00 58 1016.5
20260831103503 58 0 0.0 0.0 0.00 0.00 0.00 58 1016.6
20260831102503 58 62 0.0 0.9 0.00 0.00 0.00 57 1016.6
20260831102003 58 0 0.0 0.0 0.00 0.00 0.00 57 1016.7
20260831101002 58 0 0.0 0.0 0.00 0.00 0.00 57 1016.6
20260831100503 58 73 0.0 0.9 0.00 0.00 0.00 57 1016.7
20260831100003 58 0 0.0 0.0 0.00 0.00 0.00 56 1016.7
20260831095502 59 0 0.0 0.0 0.00 0.00 0.00 56 1016.6
20260831095003 59 0 0.0 0.0 0.00 0.00 0.00 56 1016.6
20260831094503 59 0 0.0 0.0 0.00 0.00 0.00 56 1016.5
20260831094002 59 0 0.0 0.0 0.00 0.00 0.00 56 1016.5
20260831093503 59 0 0.0 0.0 0.00 0.00 0.00 55 1016.4
20260831093003 59 0 0.0 0.0 0.00 0.00 0.00 56 1016.4
20260831092502 59 0 0.0 0.0 0.00 0.00 0.00 55 1016.4
20260831091503 60 0 0.0 0.0 0.00 0.00 0.00 55 1016.4
20260831091002 60 0 0.0 0.0 0.00 0.00 0.00 55 1016.4
20260831090003 60 73 0.0 0.9 0.00 0.00 0.00 53 1016.3
20260831085503 60 0 0.0 0.0 0.00 0.00 0.00 53 1016.4
20260831085002 60 0 0.0 0.0 0.00 0.00 0.00 53 1016.5
20260831084003 61 0 0.0 0.0 0.00 0.00 0.00 53 1016.6
20260831083503 61 0 0.0 0.0 0.00 0.00 0.00 53 1016.8
20260831082502 61 0 0.0 0.0 0.00 0.00 0.00 52 1016.7
20260831082002 61 0 0.0 0.0 0.00 0.00 0.00 52 1016.8
20260831081503 61 0 0.0 0.0 0.00 0.00 0.00 52 1016.8
20260831081003 61 0 0.0 0.0 0.00 0.00 0.00 52 1016.7
20260831080503 61 74 0.0 0.9 0.00 0.00 0.00 52 1016.8
20260831080003 61 72 0.0 1.7 0.00 0.00 0.00 53 1016.8
20260831075503 61 71 0.0 0.9 0.00 0.00 0.00 53 1017.1
20260831075003 61 71 0.0 0.9 0.00 0.00 0.00 52 1017.0
20260831074503 61 71 0.0 0.9 0.00 0.00 0.00 52 1017.1
20260831074003 62 0 0.0 0.0 0.00 0.00 0.00 52 1017.2
20260831073503 62 0 0.0 0.0 0.00 0.00 0.00 51 1017.2
20260831073003 62 0 0.0 0.0 0.00 0.00 0.00 50 1017.2
20260831072003 62 0 0.0 0.0 0.00 0.00 0.00 50 1017.0
20260831071503 63 0 0.0 0.0 0.00 0.00 0.00 49 1017.0
20260831071003 63 0 0.0 0.0 0.00 0.00 0.00 49 1017.0
20260831070503 63 0 0.0 0.0 0.00 0.00 0.00 49 1017.1
20260831070005 64 0 0.0 0.0 0.00 0.00 0.00 49 1017.1
20260831065503 64 71 0.0 0.9 0.00 0.00 0.00 49 1017.0
20260831064503 64 82 0.0 0.9 0.00 0.00 0.00 49 1017.1
20260831064003 64 82 0.0 0.9 0.00 0.00 0.00 49 1017.1
20260831063503 64 85 0.0 0.9 0.00 0.00 0.00 49 1017.1
20260831063003 64 0 0.0 0.0 0.00 0.00 0.00 49 1017.2
20260831062502 64 73 0.0 0.9 0.00 0.00 0.00 49 1017.2
20260831062003 64 0 0.9 0.0 0.00 0.00 0.00 49 1017.2
20260831061503 65 74 0.9 1.7 0.00 0.00 0.00 48 1017.2
20260831061003 65 82 0.9 1.7 0.00 0.00 0.00 48 1017.3
20260831055503 65 0 0.0 0.0 0.00 0.00 0.00 47 1017.3
20260831055003 66 0 0.0 0.0 0.00 0.00 0.00 47 1017.4
20260831054503 66 0 0.0 0.0 0.00 0.00 0.00 47 1017.5
20260831054003 66 0 0.0 0.0 0.00 0.00 0.00 46 1017.5
20260831053502 66 0 0.0 0.0 0.00 0.00 0.00 45 1017.4
20260831053003 67 0 0.0 0.0 0.00 0.00 0.00 45 1017.4
20260831052503 67 0 0.0 0.0 0.00 0.00 0.00 44 1017.4
20260831052004 67 0 0.0 0.0 0.00 0.00 0.00 44 1017.5
20260831051503 68 0 0.0 0.0 0.00 0.00 0.00 44 1017.4
20260831051003 68 0 0.0 0.0 0.00 0.00 0.00 43 1017.4
20260831050003 69 0 0.0 0.0 0.00 0.00 0.00 42 1017.4
20260831045003 69 0 0.0 0.0 0.00 0.00 0.00 41 1017.4
20260831044003 69 0 0.0 0.0 0.00 0.00 0.00 40 1017.5
20260831043003 70 0 0.0 0.0 0.00 0.00 0.00 37 1017.3
20260831042502 70 0 0.0 0.0 0.00 0.00 0.00 38 1017.2
20260831042003 70 208 0.0 1.7 0.00 0.00 0.00 37 1017.1
20260831041503 71 207 0.0 0.9 0.00 0.00 0.00 37 1017.0
20260831040504 71 195 0.0 1.7 0.00 0.00 0.00 37 1017.0
20260831040003 71 196 0.0 0.9 0.00 0.00 0.00 36 1016.9
20260831035503 72 0 0.0 0.0 0.00 0.00 0.00 36 1016.9
20260831034003 72 0 0.0 0.0 0.00 0.00 0.00 37 1016.7
20260831033502 72 0 0.9 0.0 0.00 0.00 0.00 37 1016.6
20260831033003 72 146 0.9 4.3 0.00 0.00 0.00 37 1016.6
20260831032503 73 150 0.9 3.5 0.00 0.00 0.00 37 1016.6
20260831032002 73 153 0.9 2.6 0.00 0.00 0.00 36 1016.4
20260831031503 73 145 0.9 3.5 0.00 0.00 0.00 36 1016.4
20260831031003 73 148 2.6 2.6 0.00 0.00 0.00 36 1016.3
20260831030504 73 146 3.5 3.5 0.00 0.00 0.00 36 1016.3
20260831030003 74 159 4.3 7.0 0.00 0.00 0.00 36 1016.3
20260831025004 74 170 4.3 7.8 0.00 0.00 0.00 35 1016.1
20260831024503 74 155 4.3 7.8 0.00 0.00 0.00 35 1016.2
20260831024003 74 158 4.3 7.8 0.00 0.00 0.00 34 1016.2
20260831023504 74 158 4.3 7.0 0.00 0.00 0.00 34 1016.2
20260831022004 76 177 3.5 6.1 0.00 0.00 0.00 32 1016.3
20260831021503 76 187 1.7 7.8 0.00 0.00 0.00 31 1016.1
20260831021003 76 173 0.9 6.1 0.00 0.00 0.00 29 1016.2
20260831020503 76 0 0.9 0.0 0.00 0.00 0.00 28 1016.3
20260831015503 77 238 4.3 7.0 0.00 0.00 0.00 28 1016.3
20260831015003 77 236 4.3 8.7 0.00 0.00 0.00 27 1016.3
20260831014503 77 219 6.1 7.0 0.00 0.00 0.00 26 1016.3
20260831014003 78 228 7.0 9.6 0.00 0.00 0.00 26 1016.3
20260831013503 78 227 7.0 9.6 0.00 0.00 0.00 24 1016.2
20260831012004 79 227 6.1 7.8 0.00 0.00 0.00 23 1016.3
20260831011503 79 234 5.2 9.6 0.00 0.00 0.00 23 1016.2
20260831011003 80 228 5.2 9.6 0.00 0.00 0.00 24 1016.3
20260831010004 80 240 7.8 11.3 0.00 0.00 0.00 22 1016.2
20260831005503 80 238 7.8 11.3 0.00 0.00 0.00 22 1016.2
20260831005003 81 240 7.0 10.4 0.00 0.00 0.00 24 1016.3
20260831004504 81 242 6.1 11.3 0.00 0.00 0.00 24 1016.2
20260831004003 81 242 7.0 9.6 0.00 0.00 0.00 25 1016.2
20260831003503 81 224 6.1 9.6 0.00 0.00 0.00 25 1016.3
20260831002503 80 229 6.1 10.4 0.00 0.00 0.00 25 1016.4
20260831002003 80 223 6.1 11.3 0.00 0.00 0.00 24 1016.2
20260831001503 80 221 6.1 8.7 0.00 0.00 0.00 25 1016.3
20260831001003 80 224 7.0 10.4 0.00 0.00 0.00 24 1016.1
20260831000504 80 220 8.7 10.4 0.00 0.00 0.00 25 1016.2
20260831000003 81 228 7.8 16.5 0.00 0.00 0.00 25 1016.2
20260830235503 82 230 7.0 13.9 0.00 0.00 0.00 25 1016.1
20260830235003 81 223 8.7 10.4 0.00 0.00 0.00 26 1016.2
20260830234503 81 223 10.4 12.2 0.00 0.00 0.00 25 1016.2
20260830234003 81 237 8.7 16.5 0.00 0.00 0.00 24 1016.2
20260830233003 81 235 7.8 11.3 0.00 0.00 0.00 23 1016.2
20260830232503 81 235 7.0 12.2 0.00 0.00 0.00 24 1016.3